| time (UTC) | temp F | wind direction | speed MPH | gust MPH | rain 1hr in | rain 24hr in | rain mn in | humidity % | barometer mb |
| 20260902004608 | 76 | 0 | 0.0 | 1.0 | 0.00 | 0.00 | 0.00 | 82 | 1015.3 |
| 20260902003135 | 77 | 0 | 0.0 | 0.0 | 0.00 | 0.00 | 0.00 | 82 | 1015.3 |
| 20260902001606 | 77 | 0 | 0.0 | 1.0 | 0.00 | 0.00 | 0.00 | 82 | 1015.3 |
| 20260902000105 | 78 | 0 | 0.0 | 1.0 | 0.00 | 0.00 | 0.00 | 81 | 1015.4 |
| 20260901234603 | 79 | 0 | 0.0 | 2.0 | 0.00 | 0.00 | 0.00 | 79 | 1015.6 |
| 20260901233103 | 81 | 0 | 0.0 | 3.0 | 0.00 | 0.00 | 0.00 | 77 | 1015.5 |
| 20260901231604 | 82 | 0 | 0.0 | 2.0 | 0.00 | 0.00 | 0.00 | 74 | 1015.6 |
| 20260901230104 | 84 | 0 | 0.0 | 3.0 | 0.00 | 0.00 | 0.00 | 72 | 1015.0 |
| 20260901224607 | 84 | 342 | 2.0 | 8.0 | 0.00 | 0.00 | 0.00 | 70 | 1015.0 |
| 20260901223101 | 85 | 0 | 1.0 | 9.0 | 0.00 | 0.00 | 0.00 | 69 | 1015.2 |
| 20260901221616 | 86 | 340 | 2.0 | 4.0 | 0.00 | 0.00 | 0.00 | 70 | 1015.1 |
| 20260901220106 | 86 | 344 | 2.0 | 6.0 | 0.00 | 0.00 | 0.00 | 70 | 1015.0 |
| 20260901214606 | 86 | 346 | 2.0 | 10.0 | 0.00 | 0.00 | 0.00 | 70 | 1015.1 |
| 20260901213112 | 87 | 0 | 1.0 | 4.0 | 0.00 | 0.00 | 0.00 | 70 | 1015.2 |
| 20260901211604 | 87 | 0 | 1.0 | 5.0 | 0.00 | 0.00 | 0.00 | 69 | 1015.1 |
| 20260901210132 | 87 | 344 | 2.0 | 5.0 | 0.00 | 0.00 | 0.00 | 68 | 1015.1 |
| 20260901204609 | 87 | 0 | 1.0 | 6.0 | 0.00 | 0.00 | 0.00 | 70 | 1015.1 |
| 20260901203103 | 87 | 30 | 2.0 | 7.0 | 0.00 | 0.00 | 0.00 | 70 | 1015.0 |
| 20260901201608 | 87 | 351 | 2.0 | 8.0 | 0.00 | 0.00 | 0.00 | 69 | 1015.0 |
| 20260901200104 | 86 | 13 | 1.0 | 5.0 | 0.00 | 0.00 | 0.00 | 73 | 1015.2 |
| 20260901194606 | 86 | 173 | 1.0 | 5.0 | 0.00 | 0.00 | 0.00 | 72 | 1015.2 |
| 20260901193107 | 86 | 342 | 1.0 | 4.0 | 0.00 | 0.00 | 0.00 | 75 | 1015.2 |
| 20260901191615 | 86 | 9 | 1.0 | 5.0 | 0.00 | 0.00 | 0.00 | 72 | 1015.3 |
| 20260901190135 | 87 | 125 | 1.0 | 6.0 | 0.00 | 0.00 | 0.00 | 70 | 1015.3 |
| 20260901184602 | 88 | 312 | 2.0 | 7.0 | 0.00 | 0.00 | 0.00 | 68 | 1015.5 |
| 20260901183106 | 88 | 330 | 2.0 | 6.0 | 0.00 | 0.00 | 0.00 | 70 | 1015.7 |
| 20260901181606 | 88 | 26 | 2.0 | 8.0 | 0.00 | 0.00 | 0.00 | 70 | 1015.7 |
| 20260901180104 | 88 | 19 | 3.0 | 12.0 | 0.00 | 0.00 | 0.00 | 71 | 1015.8 |
| 20260901174602 | 87 | 19 | 4.0 | 10.0 | 0.00 | 0.00 | 0.00 | 70 | 1015.9 |
| 20260901173106 | 87 | 24 | 2.0 | 8.0 | 0.00 | 0.00 | 0.00 | 70 | 1015.8 |
| 20260901171636 | 86 | 41 | 2.0 | 6.0 | 0.00 | 0.00 | 0.00 | 71 | 1016.0 |
| 20260901170108 | 86 | 355 | 2.0 | 8.0 | 0.00 | 0.00 | 0.00 | 71 | 1016.1 |
| 20260901164618 | 86 | 5 | 3.0 | 8.0 | 0.00 | 0.00 | 0.00 | 71 | 1015.9 |
| 20260901163117 | 86 | 360 | 4.0 | 8.0 | 0.00 | 0.00 | 0.00 | 72 | 1016.1 |
| 20260901161608 | 86 | 34 | 1.0 | 5.0 | 0.00 | 0.00 | 0.00 | 71 | 1016.2 |
| 20260901154605 | 84 | 75 | 1.0 | 8.0 | 0.00 | 0.00 | 0.00 | 75 | 1016.1 |
| 20260901153106 | 84 | 220 | 2.0 | 8.0 | 0.00 | 0.00 | 0.00 | 75 | 1015.9 |
| 20260901151607 | 83 | 0 | 1.0 | 6.0 | 0.00 | 0.00 | 0.00 | 77 | 1015.8 |
| 20260901150103 | 82 | 0 | 1.0 | 5.0 | 0.00 | 0.00 | 0.00 | 79 | 1015.9 |
| 20260901144603 | 81 | 315 | 2.0 | 8.0 | 0.00 | 0.00 | 0.00 | 81 | 1015.7 |
| 20260901143106 | 79 | 5 | 2.0 | 8.0 | 0.00 | 0.00 | 0.00 | 82 | 1015.6 |
| 20260901141559 | 78 | 36 | 2.0 | 10.0 | 0.00 | 0.00 | 0.00 | 85 | 1015.6 |
| 20260901140105 | 76 | 11 | 1.0 | 6.0 | 0.00 | 0.00 | 0.00 | 89 | 1015.5 |
| 20260901134605 | 75 | 347 | 2.0 | 6.0 | 0.00 | 0.00 | 0.00 | 92 | 1015.6 |
| 20260901133109 | 74 | 0 | 0.0 | 3.0 | 0.00 | 0.00 | 0.00 | 93 | 1015.9 |
| 20260901131602 | 74 | 360 | 1.0 | 3.0 | 0.00 | 0.00 | 0.00 | 93 | 1015.9 |
| 20260901130107 | 73 | 0 | 0.0 | 2.0 | 0.00 | 0.00 | 0.00 | 94 | 1015.7 |
| 20260901124603 | 73 | 0 | 0.0 | 1.0 | 0.00 | 0.01 | 0.00 | 94 | 1016.0 |
| 20260901123105 | 72 | 0 | 0.0 | 1.0 | 0.00 | 0.01 | 0.00 | 94 | 1016.2 |
| 20260901121605 | 72 | 0 | 0.0 | 1.0 | 0.00 | 0.01 | 0.00 | 94 | 1016.0 |
| 20260901120103 | 71 | 0 | 0.0 | 1.0 | 0.00 | 0.01 | 0.00 | 94 | 1015.9 |
| 20260901114603 | 71 | 0 | 0.0 | 1.0 | 0.00 | 0.01 | 0.00 | 94 | 1016.0 |
| 20260901113104 | 70 | 0 | 0.0 | 1.0 | 0.00 | 0.01 | 0.00 | 94 | 1016.0 |
| 20260901111612 | 70 | 0 | 0.0 | 1.0 | 0.00 | 0.01 | 0.00 | 93 | 1015.9 |
| 20260901110109 | 70 | 0 | 0.0 | 1.0 | 0.00 | 0.01 | 0.00 | 94 | 1015.7 |
| 20260901104625 | 70 | 0 | 0.0 | 1.0 | 0.00 | 0.01 | 0.00 | 93 | 1015.8 |
| 20260901103119 | 70 | 0 | 0.0 | 1.0 | 0.00 | 0.01 | 0.00 | 94 | 1015.7 |
| 20260901101606 | 69 | 0 | 0.0 | 2.0 | 0.00 | 0.01 | 0.00 | 93 | 1015.8 |
| 20260901100105 | 69 | 0 | 0.0 | 0.0 | 0.00 | 0.01 | 0.00 | 93 | 1015.8 |
| 20260901094605 | 69 | 0 | 0.0 | 1.0 | 0.00 | 0.01 | 0.00 | 93 | 1015.9 |
| 20260901093103 | 69 | 0 | 0.0 | 0.0 | 0.00 | 0.01 | 0.00 | 93 | 1015.8 |
| 20260901091608 | 69 | 0 | 0.0 | 0.0 | 0.00 | 0.01 | 0.00 | 93 | 1015.8 |
| 20260901090116 | 69 | 0 | 0.0 | 1.0 | 0.00 | 0.01 | 0.00 | 92 | 1015.9 |
| 20260901084608 | 69 | 0 | 0.0 | 1.0 | 0.00 | 0.01 | 0.00 | 92 | 1015.9 |
| 20260901083112 | 69 | 0 | 0.0 | 0.0 | 0.00 | 0.01 | 0.00 | 92 | 1015.9 |
| 20260901081606 | 69 | 0 | 0.0 | 1.0 | 0.00 | 0.01 | 0.00 | 92 | 1015.8 |
| 20260901080114 | 69 | 0 | 0.0 | 1.0 | 0.00 | 0.01 | 0.00 | 92 | 1015.9 |
| 20260901074604 | 69 | 0 | 0.0 | 2.0 | 0.00 | 0.03 | 0.00 | 92 | 1015.9 |
| 20260901073106 | 69 | 0 | 0.0 | 0.0 | 0.00 | 0.03 | 0.00 | 91 | 1016.0 |
| 20260901071606 | 69 | 0 | 0.0 | 2.0 | 0.00 | 0.03 | 0.00 | 92 | 1015.8 |
| 20260901070107 | 69 | 0 | 0.0 | 0.0 | 0.00 | 0.03 | 0.00 | 92 | 1016.1 |
| 20260901064618 | 69 | 0 | 0.0 | 0.0 | 0.00 | 0.11 | 0.00 | 92 | 1016.3 |
| 20260901063137 | 69 | 0 | 0.0 | 0.0 | 0.00 | 0.11 | 0.00 | 92 | 1016.5 |
| 20260901061606 | 69 | 0 | 0.0 | 0.0 | 0.00 | 0.11 | 0.00 | 91 | 1016.3 |
| 20260901060104 | 68 | 0 | 0.0 | 0.0 | 0.00 | 0.11 | 0.00 | 90 | 1016.7 |
| 20260901054604 | 69 | 0 | 0.0 | 0.0 | 0.00 | 0.11 | 0.00 | 91 | 1016.7 |
| 20260901053116 | 69 | 0 | 0.0 | 0.0 | 0.00 | 0.11 | 0.00 | 91 | 1016.7 |
| 20260901051603 | 69 | 0 | 0.0 | 0.0 | 0.00 | 0.11 | 0.00 | 90 | 1016.7 |
| 20260901050106 | 69 | 0 | 0.0 | 0.0 | 0.00 | 0.11 | 0.00 | 90 | 1016.8 |
| 20260901044607 | 69 | 0 | 0.0 | 0.0 | 0.00 | 0.11 | 0.00 | 90 | 1016.5 |
| 20260901043106 | 70 | 0 | 0.0 | 0.0 | 0.00 | 0.11 | 0.00 | 90 | 1016.4 |
| 20260901041602 | 70 | 0 | 0.0 | 0.0 | 0.00 | 0.11 | 0.00 | 90 | 1016.3 |
| 20260901040104 | 70 | 0 | 0.0 | 0.0 | 0.00 | 0.11 | 0.00 | 89 | 1016.5 |
| 20260901034559 | 70 | 0 | 0.0 | 0.0 | 0.00 | 0.11 | 0.11 | 90 | 1016.4 |
| 20260901033102 | 70 | 0 | 0.0 | 0.0 | 0.00 | 0.11 | 0.11 | 89 | 1016.5 |
| 20260901031602 | 70 | 0 | 0.0 | 0.0 | 0.00 | 0.11 | 0.11 | 88 | 1016.3 |
| 20260901030100 | 71 | 0 | 0.0 | 0.0 | 0.00 | 0.11 | 0.11 | 89 | 1016.2 |
| 20260901024604 | 71 | 0 | 0.0 | 0.0 | 0.00 | 0.11 | 0.11 | 89 | 1016.3 |
| 20260901023104 | 71 | 0 | 0.0 | 0.0 | 0.00 | 0.11 | 0.11 | 89 | 1016.4 |
| 20260901021603 | 72 | 0 | 1.0 | 2.0 | 0.00 | 0.11 | 0.11 | 89 | 1016.5 |
| 20260901014603 | 72 | 0 | 0.0 | 0.0 | 0.00 | 0.12 | 0.11 | 88 | 1016.9 |
| 20260901013109 | 72 | 0 | 0.0 | 0.0 | 0.00 | 0.12 | 0.11 | 87 | 1017.1 |
| 20260901011604 | 73 | 0 | 0.0 | 0.0 | 0.00 | 0.12 | 0.11 | 86 | 1017.1 |